SCP
1 1 1 2 1 1 0 0 0 0 0 0 0 0 0 0 1 1 2 3 4 4 4 4 4 4 5 4 4 4 4 3 3 3 3 3 3 3 3 3 2 2 2 2 2 2 2 2 1
1 1 1 1 1 1 0 0 0 0 0 0 0 0 1 1 1 2 2 3 4 4 4 4 4 4 5 5 4 4 4 3 3 3 3 3 3 3 3 3 2 2 2 2 2 2 2 2 2
1 1 1 1 1 0 0 0 0 0 0 0 0 1 1 2 2 3 3 4 5 5 5 4 4 5 5 5 5 4 4 3 3 3 3 3 3 3 3 3 3 2 2 2 2 2 2 2 2
1 1 1 1 0 0 0 0 0 1 1 1 1 1 2 2 3 4 5 5 5 5 5 5 5 5 5 5 5 5 4 4 3 3 3 3 3 3 3 4 3 3 2 3 3 3 2 2 2
1 1 1 1 0 0 0 0 1 1 1 1 1 2 3 3 4 5 6 6 6 5 5 5 5 6 6 6 5 5 4 4 4 4 4 4 4 3 4 4 4 3 3 3 3 3 2 2 2
1 1 1 0 0 0 0 0 1 1 1 1 2 3 4 4 5 6 6 6 6 6 5 5 5 6 6 6 6 5 5 4 4 4 5 4 4 4 3 4 4 4 3 3 3 3 3 2 2
1 1 1 0 0 0 0 0 0 1 1 1 2 4 6 6 5 6 7 7 6 6 6 5 5 6 6 5 5 5 5 4 5 5 5 4 4 4 3 3 4 4 4 3 3 3 3 3 2
1 1 0 0 0 0 0 0 0 1 1 1 3 5 7 6 5 6 7 8 7 6 6 6 6 6 6 5 5 4 4 4 5 5 4 4 4 3 3 3 4 4 4 3 3 3 3 3 3
1 1 0 0 0 0 0 0 0 1 2 2 3 5 7 7 6 6 8 8 8 6 5 5 5 6 6 6 5 4 4 4 4 4 3 3 3 3 3 3 3 4 4 3 3 3 2 2 2
1 1 0 0 0 0 0 0 0 2 3 4 4 5 7 7 6 7 8 8 7 6 5 5 5 5 6 6 5 4 4 4 4 3 2 2 3 3 3 3 3 3 3 3 3 2 2 2 2
0 0 0 0 0 0 0 0 0 2 3 4 4 6 7 6 6 7 7 7 7 6 6 5 5 5 6 6 6 5 4 4 3 3 2 2 2 3 3 3 3 3 3 3 2 2 1 1 2
0 0 0 0 0 0 0 0 0 2 3 4 4 5 6 6 6 6 6 7 7 7 6 6 5 5 5 6 5 5 4 4 3 3 3 2 2 2 3 3 3 3 2 2 2 1 1 1 1
0 0 0 0 0 0 0 0 0 1 3 4 4 5 5 5 5 5 5 6 7 8 8 6 5 4 5 5 5 4 4 4 3 3 2 2 2 2 2 3 3 2 2 2 1 1 1 1 1
0 0 0 0 0 0 0 0 0 1 3 4 4 4 5 5 5 5 4 5 6 8 8 7 5 4 4 5 5 4 4 4 4 3 2 2 1 1 2 2 2 2 2 1 1 1 1 1 1
0 0 0 0 0 0 0 0 0 2 3 3 3 4 5 5 5 4 4 4 5 6 8 8 6 4 3 4 4 3 3 3 4 3 2 1 1 1 1 1 2 2 2 1 1 1 1 1 1
0 0 0 0 0 0 0 0 1 2 3 3 3 4 4 4 4 4 5 5 4 4 6 7 6 3 2 3 3 3 2 2 3 3 2 2 1 1 1 1 1 1 2 1 1 1 1 1 1
0 0 0 0 0 0 0 0 0 1 2 3 3 3 3 3 3 4 5 5 4 3 4 6 5 3 2 2 3 3 2 2 2 3 2 2 1 1 1 1 1 1 1 1 1 1 1 1 1
0 0 0 0 0 0 0 0 0 1 1 2 3 3 3 3 3 4 5 5 3 3 4 5 5 3 2 2 2 2 2 2 2 2 2 2 1 1 1 1 1 1 1 1 1 1 1 1 1
0 0 0 0 0 0 0 0 0 0 1 1 2 3 3 3 3 5 5 4 3 3 3 4 4 3 2 2 2 2 2 2 2 1 1 1 1 1 1 1 1 1 1 1 1 1 1 1 0
0 0 0 0 0 0 0 0 0 0 0 1 1 2 3 2 3 4 4 2 2 3 3 3 3 3 2 2 2 2 2 2 1 1 1 1 1 1 1 1 1 0 0 0 1 1 1 1 0
0 0 0 0 0 0 0 0 0 0 0 1 1 1 2 2 2 3 2 1 2 2 3 3 3 3 3 2 2 2 2 2 1 1 1 1 1 0 0 0 0 0 0 0 0 1 1 1 0
0 0 0 0 0 0 0 0 0 0 0 0 1 1 1 1 1 1 1 1 2 2 3 3 3 3 3 2 2 2 2 2 1 1 1 1 0 0 0 0 0 0 0 0 0 0 1 1 0
0 0 0 0 0 0 0 0 0 0 0 0 0 0 0 0 0 0 0 1 2 2 2 2 2 2 2 2 2 2 2 2 1 1 1 1 0 0 0 0 0 0 0 0 0 0 0 0 0
0 0 0 0 0 0 0 0 0 0 0 0 0 0 0 0 0 0 0 0 1 2 2 2 2 2 2 2 2 2 1 1 1 1 1 1 0 0 0 0 0 0 0 0 0 0 0 0 0
0 0 0 0 0 0 0 0 0 0 0 0 0 0 0 0 0 0 0 0 1 2 2 2 2 2 2 2 2 2 1 1 1 1 1 1 0 0 0 0 0 0 0 0 0 0 0 0 0
0 0 0 0 0 0 0 0 0 0 0 0 0 0 0 0 0 0 0 0 1 1 2 2 2 2 2 2 2 2 1 1 1 1 1 1 1 0 0 0 0 0 0 0 0 0 0 0 0
0 0 0 0 0 0 0 0 0 0 0 0 0 0 0 0 0 0 0 0 0 1 1 2 2 1 1 2 2 2 2 1 1 1 1 1 1 0 0 0 0 0 0 0 0 0 0 0 0
0 0 0 0 0 0 0 0 0 0 0 0 0 0 0 0 0 0 0 0 0 0 1 1 1 1 1 1 2 2 2 1 1 1 1 1 1 0 0 0 0 0 0 0 0 0 0 0 0
0 0 0 0 0 0 0 0 0 0 0 0 0 0 0 0 0 0 0 0 0 0 0 0 1 1 1 1 2 2 2 2 1 1 1 1 1 1 0 0 0 0 0 0 0 0 0 0 0
0 0 0 0 0 0 0 0 0 0 0 0 0 0 0 0 0 0 0 0 0 0 0 0 0 1 1 1 1 2 2 2 1 1 1 1 1 1 0 0 0 0 0 0 0 0 0 0 0
Wind_Speed
8 5 2 3 4 1 6 6 3 2 2 2 1 2 4 4 4 4 1 5 7 10 10 10 11 12 12 12 11 11 11 10 11 11 11 11 11 11 11 10 10 10 10 10 10 11 11 10 10
4 2 3 3 3 4 6 5 5 5 3 1 1 1 3 1 1 4 2 4 8 10 9 10 11 12 12 12 11 11 11 10 11 11 11 11 11 11 11 10 10 10 10 10 10 10 10 10 10
4 1 2 3 4 8 6 4 7 5 3 1 1 1 2 2 2 2 2 7 8 8 7 9 11 13 12 12 11 11 11 10 10 11 11 11 11 11 10 10 10 9 9 9 9 9 10 10 10
2 3 2 2 8 8 6 2 3 3 3 1 1 1 1 1 2 2 5 9 8 7 6 8 11 12 12 12 11 11 11 10 10 10 10 10 10 10 10 9 9 9 9 9 9 9 9 9 9
3 2 2 4 9 6 4 4 2 2 2 2 1 1 1 3 3 6 7 9 9 7 5 7 10 11 11 12 11 11 10 10 10 10 10 10 10 10 10 9 9 9 8 8 9 9 9 9 9
2 2 3 7 8 5 3 3 2 1 2 1 1 1 2 1 4 5 5 6 7 8 6 6 8 10 10 9 10 10 10 10 10 9 9 10 10 10 10 9 9 8 8 8 8 8 9 9 9
2 2 5 6 5 5 5 3 2 2 2 3 1 2 1 2 2 3 5 5 5 6 6 5 5 6 8 8 9 9 9 9 9 9 8 9 9 10 9 9 8 8 7 7 7 8 8 8 8
2 2 4 5 5 6 4 3 2 3 4 2 1 4 3 3 0 3 5 5 4 5 5 5 4 5 5 5 7 8 8 8 8 8 7 7 8 9 8 7 8 7 7 7 7 7 7 8 8
2 1 6 6 5 4 3 3 4 3 2 2 1 2 4 4 3 5 4 4 3 3 3 4 4 4 4 4 5 6 7 8 7 7 7 6 5 5 5 6 7 7 6 6 6 6 6 6 6
3 3 6 4 3 3 4 3 4 3 3 3 4 2 2 3 4 5 4 3 3 2 3 3 4 4 4 3 3 4 4 5 5 5 6 4 4 4 4 5 6 6 5 5 5 6 5 4 2
2 4 4 3 3 3 4 5 3 2 5 4 4 2 1 2 3 4 4 3 3 3 2 3 4 3 3 3 3 2 2 3 4 5 5 4 4 3 3 2 3 3 3 2 2 2 1 2 2
1 4 3 4 4 4 5 4 4 4 7 5 4 5 4 4 3 4 4 3 2 1 1 1 2 3 3 2 2 3 3 3 3 4 5 5 3 3 3 2 2 2 2 2 1 1 1 2 2
2 3 4 4 5 4 5 6 5 7 6 4 2 3 5 5 4 3 3 4 3 2 1 1 2 2 2 2 2 2 3 3 4 4 4 5 4 4 4 3 3 2 2 2 2 1 2 2 2
2 3 4 5 6 5 5 7 4 8 5 2 2 4 5 5 4 3 2 3 3 2 2 2 2 2 2 2 2 2 2 2 3 3 4 5 4 4 4 4 3 3 3 3 3 2 2 1 2
2 3 4 3 4 3 3 6 5 7 3 2 3 3 3 3 3 4 4 4 4 3 3 2 2 2 2 2 2 2 2 2 2 3 4 4 4 5 4 4 4 3 3 3 2 2 1 1 1
2 2 3 4 2 2 1 8 6 5 2 3 3 3 3 3 4 4 3 3 3 4 3 3 2 2 2 2 2 2 1 2 2 2 3 4 5 5 4 4 3 3 3 3 3 2 2 1 1
2 1 4 5 2 1 2 8 7 5 2 4 4 4 3 3 3 3 3 3 3 4 4 3 3 3 2 2 2 2 1 2 2 2 2 3 4 4 4 3 3 4 3 3 3 2 2 2 2
2 3 4 5 3 4 6 9 8 5 3 4 4 4 4 4 5 3 3 3 2 2 3 3 3 3 2 2 2 1 1 1 1 2 2 3 3 4 4 3 3 3 3 3 3 3 2 2 2
3 4 7 7 4 4 7 9 9 5 4 4 4 4 4 5 4 3 3 2 2 1 2 3 3 3 3 2 2 2 1 1 1 2 3 3 3 3 4 3 3 3 3 4 4 3 3 1 1
3 4 6 7 3 4 6 9 8 4 4 5 5 5 4 4 3 1 1 2 2 2 2 3 3 3 3 2 2 1 2 1 1 1 2 3 3 3 4 4 4 3 3 4 5 4 3 2 2
4 4 4 5 6 3 3 6 5 4 3 3 3 4 4 3 3 2 1 2 1 1 2 3 2 3 2 2 2 2 1 1 0 1 2 2 2 3 3 4 3 3 4 4 5 6 5 4 2
4 3 4 4 3 4 1 4 7 4 4 4 4 3 2 2 3 2 2 2 2 2 1 2 2 2 2 2 3 4 3 2 2 1 1 2 2 2 3 3 3 3 3 4 5 4 4 5 4
4 4 4 3 1 3 2 2 7 3 5 6 6 4 2 3 2 2 2 2 2 1 1 2 2 2 2 2 3 3 3 2 1 1 1 1 1 2 3 3 3 3 3 4 4 4 4 4 5
2 3 3 2 2 3 3 3 6 3 5 6 5 5 3 2 2 1 1 1 0 0 0 1 1 1 1 2 3 3 3 3 3 2 2 1 1 1 2 2 3 3 3 3 3 3 4 4 4
4 4 4 5 3 5 2 2 6 4 5 4 4 4 3 2 2 1 1 1 0 0 0 1 1 1 1 2 2 3 3 4 4 4 3 2 2 1 2 2 3 3 3 3 3 3 3 4 4
1 2 2 2 4 5 2 4 5 3 5 4 3 3 3 3 3 2 1 1 1 1 1 1 1 1 1 1 2 2 3 2 2 3 2 3 3 3 3 3 3 3 3 3 3 2 3 3 4
0 1 2 2 2 3 4 4 5 5 7 7 6 6 5 4 4 3 3 2 1 1 1 2 2 2 2 1 1 2 2 2 3 2 2 2 2 2 3 3 3 3 3 3 3 3 3 4 3
1 1 2 2 1 4 5 3 4 6 7 7 7 6 6 5 5 4 3 2 2 2 2 1 1 2 1 1 1 1 1 2 2 2 2 2 2 2 2 3 3 3 3 3 3 3 3 3 3
1 1 1 1 2 2 4 6 3 3 3 4 6 6 5 5 5 5 3 3 2 3 2 1 1 0 0 1 1 0 1 0 1 1 2 2 2 2 3 3 3 3 4 4 3 3 4 4 3
1 2 2 2 3 2 3 7 3 2 3 4 5 6 5 5 5 4 3 3 3 3 2 2 1 1 1 1 1 0 0 0 0 1 1 1 1 2 2 2 2 3 4 4 4 4 4 4 4
Wind_Direction
320 324 41 63 71 87 232 240 229 239 232 231 232 134 145 156 159 179 195 137 134 147 158 156 150 148 142 137 133 131 129 129 127 124 122 121 120 118 117 117 119 118 117 115 115 112 110 110 107
320 340 57 76 128 203 240 231 227 234 230 269 334 87 94 126 103 116 118 148 139 147 154 156 150 148 144 141 137 135 133 132 132 130 127 124 123 122 122 121 123 122 118 115 115 114 111 110 107
318 31 98 110 182 205 220 222 220 244 265 340 347 18 122 154 140 154 177 147 135 141 152 154 149 151 148 146 143 140 138 136 136 134 132 130 127 125 123 124 122 123 121 118 118 116 111 108 108
41 51 65 158 220 224 216 232 233 247 293 341 101 23 5 61 158 168 142 136 130 138 145 152 149 153 152 149 146 144 142 140 138 137 136 135 133 130 126 123 121 122 123 122 120 117 113 112 110
66 98 161 225 233 237 240 258 261 251 258 297 84 136 316 340 65 107 122 133 136 137 141 150 150 153 153 152 151 148 146 144 142 138 139 138 134 132 129 125 124 121 123 126 122 121 120 116 114
64 106 179 224 233 242 252 259 251 298 285 293 106 160 245 17 72 105 116 131 140 140 140 146 151 149 147 148 152 151 150 148 145 143 141 140 138 135 135 131 127 127 125 130 128 125 124 120 116
135 161 208 224 234 247 260 270 205 251 275 258 168 146 246 360 33 115 112 117 130 135 135 142 144 149 150 150 150 152 153 150 146 144 142 143 141 140 139 134 132 131 130 130 133 130 127 125 119
140 142 222 230 228 243 267 279 257 237 258 269 131 150 210 251 256 98 101 100 116 131 138 142 139 138 145 158 156 151 152 150 148 142 137 137 141 139 136 134 136 134 130 131 136 134 133 128 122
102 157 225 221 221 246 282 278 295 279 259 288 282 209 211 181 125 94 89 90 104 124 142 145 141 138 139 154 160 155 154 150 145 142 136 131 138 138 135 138 138 136 135 134 134 132 132 126 120
116 208 235 234 227 254 287 275 290 311 296 296 322 345 90 128 124 123 124 140 148 156 167 155 149 149 149 154 152 167 163 153 147 148 144 141 140 142 137 137 139 136 132 129 128 129 122 114 110
153 221 250 279 279 283 291 291 286 258 266 252 238 231 165 137 137 142 152 166 176 175 178 166 160 156 157 155 155 161 157 152 145 147 149 142 136 137 130 130 131 125 118 110 104 104 112 126 130
212 263 271 291 309 301 285 290 289 260 260 265 231 184 181 181 186 179 171 169 173 165 167 153 154 153 160 161 163 163 165 160 157 157 155 152 148 149 148 143 145 141 141 137 124 128 138 135 144
252 281 291 308 319 300 293 282 277 279 285 278 259 184 185 191 200 198 173 154 157 161 179 175 169 163 158 155 166 153 175 166 166 161 163 162 158 162 160 153 156 159 154 152 151 152 156 150 155
250 272 292 300 301 295 290 285 276 277 293 285 252 209 202 197 198 197 173 157 167 180 198 189 181 164 165 165 167 151 149 164 165 166 167 164 161 163 163 157 165 169 164 161 160 161 160 165 157
307 312 318 307 300 292 310 288 261 278 301 283 260 237 217 212 199 199 195 182 179 184 189 195 183 161 165 166 161 149 151 148 160 169 168 168 163 163 167 167 172 175 161 154 147 143 137 153 150
6 16 306 293 302 304 274 263 275 288 276 263 273 262 228 225 215 211 202 197 188 178 178 189 181 160 174 169 156 153 159 147 159 166 169 171 169 167 164 171 175 170 159 156 155 155 145 160 159
19 294 272 293 272 309 254 267 288 304 281 263 260 258 241 244 243 225 207 205 204 184 177 184 175 161 170 161 143 139 156 155 165 164 169 178 173 168 161 172 174 168 161 163 170 162 157 162 164
263 267 275 279 286 302 278 275 291 305 298 270 258 252 248 243 247 228 218 209 203 189 171 177 175 158 153 133 117 114 95 152 165 177 173 171 175 171 161 163 171 169 166 171 170 163 152 163 173
256 252 274 277 285 292 271 278 286 294 296 281 270 252 255 253 249 221 207 188 172 178 179 177 176 163 152 149 154 148 184 220 181 200 178 175 177 172 165 165 168 176 182 181 168 159 152 167 159
270 267 273 289 298 287 273 277 281 296 281 272 267 255 248 262 248 233 191 171 169 178 195 182 177 176 168 169 168 152 159 226 204 194 189 175 176 178 175 170 172 175 174 177 174 169 166 184 182
277 248 268 287 315 307 289 293 293 320 305 301 285 261 240 235 221 227 192 188 176 195 202 185 180 184 173 149 123 109 95 77 141 189 199 185 181 181 173 173 173 175 178 185 188 180 178 187 208
274 255 275 291 326 301 329 291 292 313 322 322 309 296 266 269 228 208 176 183 206 214 201 181 173 180 177 160 152 156 167 197 218 205 216 204 187 176 175 174 177 181 185 191 194 189 186 179 191
262 297 286 270 250 301 286 241 288 338 321 309 306 306 299 289 244 207 190 197 216 213 192 191 167 170 185 191 180 177 181 194 187 155 184 211 192 181 180 178 180 186 192 196 193 182 187 188 188
306 348 2 32 64 296 250 201 287 306 293 303 309 313 304 304 300 268 203 162 169 98 87 157 161 178 195 198 198 189 184 179 171 178 189 218 208 193 190 183 186 192 196 197 194 194 192 191 185
34 44 16 356 352 262 274 213 262 293 302 284 287 305 317 310 305 318 2 11 58 68 285 187 173 203 216 204 205 201 193 188 185 191 197 211 207 216 217 207 197 198 202 204 196 191 198 189 179
330 121 151 236 257 289 313 247 261 309 332 348 2 2 357 343 341 338 315 269 249 253 247 212 198 215 233 226 220 204 192 200 203 202 207 219 216 215 214 215 210 203 200 201 198 199 207 192 186
54 203 184 161 282 284 274 284 298 343 355 4 9 11 359 342 348 348 350 359 347 289 272 226 213 219 226 232 235 206 198 212 214 207 219 224 230 227 212 212 217 208 200 198 199 210 209 189 189
159 152 78 106 253 282 290 282 290 327 330 343 351 347 339 340 343 340 341 344 337 303 280 241 199 210 214 216 226 240 216 221 225 198 214 229 237 236 220 216 218 214 203 197 198 216 205 185 188
32 42 108 157 201 221 279 276 267 286 309 324 324 326 329 330 332 332 334 333 329 329 337 333 332 20 312 256 256 243 226 237 267 228 223 226 223 227 226 222 215 216 208 199 200 212 193 184 182
168 185 148 170 258 236 254 274 307 313 327 333 326 326 331 334 331 329 340 354 347 337 340 352 4 4 334 303 283 238 205 145 257 274 267 257 229 229 233 229 218 220 212 200 203 210 197 190 187